Weather History for KBUF - December, 2014

Change the Weather History Date:

Tuesday, December 2, 2014

  Actual Average Record
Temperature  
Mean Temperature 28 °F 35 °F  
Max Temperature 36 °F 41 °F 68 °F (1982)
Min Temperature 19 °F 29 °F 1 °F (1976)
Degree Days  
Heating Degree Days 37 30  
Month to date heating degree days 64 60  
Since 1 July heating degree days 1362 1393  
Cooling Degree Days 0 0  
Month to date cooling degree days 0 0  
Year to date cooling degree days 516 544  
Moisture  
Dew Point 20 °F    
Average Humidity 68    
Maximum Humidity 85    
Minimum Humidity 51    
Precipitation  
Precipitation 0.04 in 0.13 in 1.45 in (1986)
Month to date precipitation 0.04 0.25  
Year to date precipitation 40.29 36.84  
Snow  
Snow 0.10 in 0.60 in 16.60 in (1976)
Month to date snowfall 0.1 1.2  
Since 1 July snowfall 20.6 10.0  
Snow Depth 0.00 in    
Sea Level Pressure  
Sea Level Pressure 30.42 in    
Wind  
Wind Speed 8 mph (East)    
Max Wind Speed 18 mph    
Max Gust Speed 24 mph    
Visibility 8 miles    
Events Rain , Snow    
T = Trace of Precipitation, MM = Missing Value Source: NWS Daily Summary

Daily Weather History Graph

Daily Weather History Graph

Search for Another Location

Airport or City:

Trip Planner

Search our weather history database for the weather conditions in past years. The results will help you decide how hot, cold, wet, or windy it might be!

Date:

Astronomy

Dec. 02, 2014 Rise Set
Actual Time 7:27 AM EST 4:41 PM EST
Civil Twilight 6:55 AM EST 5:13 PM EST
Nautical Twilight 6:20 AM EST 5:48 PM EST
Astronomical Twilight 5:46 AM EST 6:22 PM EST
Moon 2:27 PM EST (12/2) 3:01 AM EST (12/2)
Length of Visible Light 10h 17m
Length of Day
9h 13m
Waxing Gibbous, 84% of the Moon is Illuminated
Dec 2
Waxing Gibbous
Dec 6
Full
Dec 14
Last Quarter
Dec 21
New
Dec 28
First Quarter

Hourly Weather History & Observations

Time (EST) Temp. Windchill Dew Point Humidity Pressure Visibility Wind Dir Wind Speed Gust Speed Precip Events Conditions
12:54 AM 24.1 °F 14.4 °F 12.0 °F 60% 30.65 in 9.0 mi NE 9.2 mph - 0.00 in Snow Light Snow
1:28 AM 23.0 °F 15.8 °F 12.0 °F 63% 30.62 in 9.0 mi NNE 5.8 mph - 0.00 in   Scattered Clouds
1:54 AM 21.9 °F 15.7 °F 12.0 °F 66% 30.66 in 10.0 mi NNE 4.6 mph - 0.00 in   Scattered Clouds
2:54 AM 23.0 °F 11.7 °F 14.0 °F 68% 30.65 in 10.0 mi NE 11.5 mph - N/A   Scattered Clouds
3:01 AM 23.0 °F 11.7 °F 12.0 °F 63% 30.62 in 10.0 mi NE 11.5 mph - N/A   Overcast
3:52 AM 21.2 °F 13.6 °F 12.2 °F 68% 30.60 in 10.0 mi ENE 5.8 mph - N/A   Scattered Clouds
3:54 AM 21.0 °F 12.4 °F 12.0 °F 68% 30.64 in 10.0 mi ENE 6.9 mph - N/A   Scattered Clouds
4:54 AM 21.0 °F 11.4 °F 12.0 °F 68% 30.64 in 10.0 mi ENE 8.1 mph - N/A   Partly Cloudy
5:54 AM 19.0 °F 10.0 °F 12.0 °F 74% 30.64 in 10.0 mi NE 6.9 mph - N/A   Partly Cloudy
6:54 AM 19.9 °F 10.1 °F 12.0 °F 71% 30.63 in 10.0 mi ENE 8.1 mph - N/A   Partly Cloudy
7:19 AM 19.9 °F 8.6 °F 12.9 °F 74% 30.59 in 10.0 mi NE 10.4 mph - N/A   Mostly Cloudy
7:54 AM 21.0 °F 10.6 °F 14.0 °F 74% 30.61 in 10.0 mi NE 9.2 mph - N/A   Mostly Cloudy
8:02 AM 21.0 °F 11.4 °F 14.0 °F 74% 30.57 in 10.0 mi NE 8.1 mph - N/A   Mostly Cloudy
8:54 AM 24.1 °F 11.0 °F 14.0 °F 65% 30.58 in 10.0 mi East 16.1 mph - N/A   Mostly Cloudy
9:54 AM 27.0 °F 14.7 °F 15.1 °F 61% 30.55 in 10.0 mi East 16.1 mph - N/A   Mostly Cloudy
10:54 AM 28.0 °F 17.0 °F 15.1 °F 58% 30.51 in 10.0 mi East 13.8 mph - N/A   Mostly Cloudy
11:54 AM 30.0 °F 21.1 °F 15.1 °F 54% 30.44 in 10.0 mi East 10.4 mph - N/A   Overcast
12:54 PM 33.1 °F 22.6 °F 17.1 °F 52% 30.38 in 10.0 mi East 16.1 mph - N/A   Mostly Cloudy
1:54 PM 33.1 °F 25.5 °F 18.0 °F 54% 30.34 in 10.0 mi East 9.2 mph - N/A   Overcast
2:54 PM 33.1 °F 24.4 °F 18.0 °F 54% 30.30 in 10.0 mi East 11.5 mph - N/A   Overcast
3:37 PM 33.1 °F 23.9 °F 21.0 °F 61% 30.25 in 2.0 mi East 12.7 mph - 0.00 in Snow Light Snow
3:54 PM 32.0 °F 24.8 °F 27.0 °F 82% 30.27 in 1.5 mi ESE 8.1 mph - 0.00 in Snow Light Snow
4:02 PM 32.0 °F 24.2 °F 26.6 °F 80% 30.23 in 3.0 mi East 9.2 mph - N/A Snow Light Snow
4:38 PM 30.9 °F 25.2 °F 28.0 °F 89% 30.22 in 2.5 mi East 5.8 mph - 0.01 in Snow Light Snow
4:47 PM 30.9 °F 26.2 °F 28.0 °F 89% 30.22 in 2.5 mi East 4.6 mph - 0.02 in Snow Light Snow
4:54 PM 32.0 °F 28.7 °F 28.0 °F 85% 30.25 in 4.0 mi ENE 3.5 mph - 0.02 in Snow Light Snow
5:54 PM 32.0 °F 26.4 °F 28.9 °F 88% 30.22 in 7.0 mi ESE 5.8 mph - 0.00 in Rain , Snow Light Rain
6:54 PM 33.1 °F 30.0 °F 30.0 °F 89% 30.19 in 8.0 mi SE 3.5 mph - 0.01 in Rain Light Rain
7:54 PM 34.0 °F - 30.0 °F 85% 30.16 in 10.0 mi Calm Calm - 0.00 in   Light Drizzle
8:54 PM 34.0 °F 29.8 °F 30.9 °F 89% 30.13 in 8.0 mi South 4.6 mph - 0.01 in Rain Light Rain
9:54 PM 34.0 °F 31.0 °F 32.0 °F 92% 30.10 in 7.0 mi South 3.5 mph - 0.00 in   Light Drizzle
10:54 PM 34.0 °F 29.8 °F 32.0 °F 92% 30.09 in 6.0 mi South 4.6 mph - 0.00 in   Overcast
11:54 PM 35.1 °F 30.1 °F 34.0 °F 96% 30.07 in 8.0 mi SSW 5.8 mph - 0.00 in   Light Drizzle